TUI7VB EDDF-GCTS

Flight info

Callsign TUI7VB
Flight time 4h 28m
Altitude 34000
Route SOBRA2L/18 SOBRA Y180 DIK UN857 TOLVU DCT RAPOR DCT ESTOC DCT PON DCT DITAL DCT GODIX DCT DIDAK DCT KURIS DCT TERPO DCT ERIGA DCT FUJTI DCT ATLEN DCT ABUPI DCT ULVAX DCT NATID DCT CASLU DCT BEXAL UN866 KONBA
Aircraft B738/M-SDE2E3FGHIRWXY/LB1

Departure

Time 2026-05-05 11:21
Airport Frankfurt Main Airport (EDDF)

Arrival

Time 2026-05-05 15:49
Airport Tenerife Sur Airport (GCTS)
Time Latitude Longitude Altitude Speed Heading
2026-05-05 10:38 50.04963 8.59074 361 ft 0 kts 159°
2026-05-05 11:04 50.04982 8.59064 360 ft 4 kts 159°
2026-05-05 11:04 50.05007 8.59049 362 ft 4 kts 159°
2026-05-05 11:05 50.05028 8.59037 361 ft 4 kts 169°
2026-05-05 11:05 50.05052 8.59041 363 ft 4 kts 214°
2026-05-05 11:05 50.05068 8.59070 360 ft 3 kts 249°
2026-05-05 11:05 50.05073 8.59090 363 ft 0 kts 249°
2026-05-05 11:06 50.05073 8.59089 362 ft 0 kts 249°
2026-05-05 11:08 50.05073 8.59088 362 ft 1 kts 249°
2026-05-05 11:08 50.05067 8.59068 358 ft 4 kts 240°
2026-05-05 11:08 50.05038 8.59029 361 ft 7 kts 219°
2026-05-05 11:09 50.04998 8.58960 359 ft 10 kts 243°
2026-05-05 11:09 50.04967 8.58834 361 ft 14 kts 250°
2026-05-05 11:09 50.04935 8.58695 362 ft 13 kts 250°
2026-05-05 11:09 50.04901 8.58557 359 ft 15 kts 250°
2026-05-05 11:10 50.04859 8.58379 363 ft 18 kts 250°
2026-05-05 11:10 50.04851 8.58345 359 ft 0 kts 250°
2026-05-05 11:10 50.04846 8.58324 359 ft 6 kts 250°
2026-05-05 11:10 50.04824 8.58233 361 ft 12 kts 250°
2026-05-05 11:11 50.04792 8.58097 360 ft 14 kts 249°
2026-05-05 11:11 50.04753 8.57959 360 ft 14 kts 234°
2026-05-05 11:11 50.04695 8.57849 359 ft 13 kts 245°
2026-05-05 11:11 50.04663 8.57710 359 ft 15 kts 249°
2026-05-05 11:12 50.04620 8.57532 360 ft 18 kts 249°
2026-05-05 11:12 50.04576 8.57349 357 ft 18 kts 250°
2026-05-05 11:12 50.04533 8.57169 358 ft 19 kts 250°
2026-05-05 11:12 50.04485 8.56967 363 ft 20 kts 249°
2026-05-05 11:13 50.04437 8.56763 359 ft 20 kts 250°
2026-05-05 11:13 50.04388 8.56562 358 ft 20 kts 250°
2026-05-05 11:13 50.04336 8.56344 356 ft 23 kts 250°
2026-05-05 11:13 50.04275 8.56089 357 ft 27 kts 249°
2026-05-05 11:14 50.04211 8.55819 352 ft 26 kts 249°
2026-05-05 11:14 50.04150 8.55565 357 ft 24 kts 250°
2026-05-05 11:14 50.04092 8.55323 354 ft 23 kts 249°
2026-05-05 11:14 50.04037 8.55094 359 ft 22 kts 249°
2026-05-05 11:15 50.03984 8.54872 351 ft 22 kts 249°
2026-05-05 11:15 50.03928 8.54639 349 ft 25 kts 250°
2026-05-05 11:15 50.03866 8.54387 349 ft 24 kts 242°
2026-05-05 11:15 50.03786 8.54164 344 ft 23 kts 250°
2026-05-05 11:16 50.03731 8.53935 345 ft 22 kts 249°
2026-05-05 11:16 50.03678 8.53712 338 ft 22 kts 250°
2026-05-05 11:16 50.03623 8.53496 337 ft 21 kts 250°
2026-05-05 11:16 50.03572 8.53286 337 ft 20 kts 250°
2026-05-05 11:17 50.03523 8.53082 337 ft 20 kts 249°
2026-05-05 11:17 50.03475 8.52885 333 ft 19 kts 244°
2026-05-05 11:17 50.03440 8.52757 330 ft 0 kts 249°
2026-05-05 11:19 50.03438 8.52750 335 ft 2 kts 249°
2026-05-05 11:19 50.03427 8.52706 331 ft 7 kts 250°
2026-05-05 11:19 50.03398 8.52625 330 ft 11 kts 223°
2026-05-05 11:19 50.03332 8.52595 330 ft 0 kts 179°
2026-05-05 11:20 50.03326 8.52595 334 ft 5 kts 179°
2026-05-05 11:20 50.03063 8.52597 334 ft 72 kts 179°
2026-05-05 11:20 50.02338 8.52605 334 ft 134 kts 180°
2026-05-05 11:21 50.01225 8.52620 347 ft 184 kts 179°
2026-05-05 11:21 49.99889 8.52638 913 ft 191 kts 179°
2026-05-05 11:21 49.98574 8.52678 1793 ft 190 kts 178°
2026-05-05 11:21 49.97156 8.52761 2081 ft 215 kts 178°
2026-05-05 11:22 49.95609 8.52873 2454 ft 229 kts 177°
2026-05-05 11:22 49.94014 8.53074 3089 ft 230 kts 173°
2026-05-05 11:22 49.92333 8.53337 3234 ft 263 kts 175°
2026-05-05 11:22 49.90371 8.53482 3375 ft 291 kts 179°
2026-05-05 11:23 49.88409 8.53543 3839 ft 271 kts 179°
2026-05-05 11:23 49.86617 8.53180 3982 ft 257 kts 200°
2026-05-05 11:23 49.84915 8.52154 4016 ft 267 kts 201°
2026-05-05 11:23 49.83165 8.51141 4014 ft 268 kts 200°
2026-05-05 11:24 49.81423 8.50151 4020 ft 267 kts 200°
2026-05-05 11:24 49.79667 8.49160 4350 ft 270 kts 200°
2026-05-05 11:24 49.77914 8.48122 5190 ft 270 kts 207°
2026-05-05 11:24 49.76511 8.46237 5992 ft 270 kts 237°
2026-05-05 11:25 49.75868 8.43524 6756 ft 274 kts 263°
2026-05-05 11:25 49.76003 8.40576 7480 ft 278 kts 281°
2026-05-05 11:25 49.76475 8.37647 8146 ft 284 kts 284°
2026-05-05 11:25 49.76998 8.34631 8827 ft 288 kts 283°
2026-05-05 11:26 49.77502 8.31659 9543 ft 291 kts 283°
2026-05-05 11:26 49.78002 8.28618 10228 ft 295 kts 282°
2026-05-05 11:26 49.78515 8.25441 10450 ft 316 kts 281°
2026-05-05 11:26 49.79062 8.22025 10619 ft 337 kts 281°
2026-05-05 11:27 49.79640 8.18398 10790 ft 357 kts 282°
2026-05-05 11:27 49.80251 8.14566 10936 ft 376 kts 281°
2026-05-05 11:27 49.80891 8.10558 11184 ft 390 kts 282°
2026-05-05 11:27 49.81546 8.06447 11730 ft 394 kts 281°
2026-05-05 11:28 49.82202 8.02323 12379 ft 396 kts 281°
2026-05-05 11:28 49.82860 7.98171 12991 ft 398 kts 281°
2026-05-05 11:28 49.83521 7.93992 13531 ft 402 kts 281°
2026-05-05 11:28 49.84189 7.89762 14055 ft 406 kts 281°
2026-05-05 11:29 49.84861 7.85498 14588 ft 409 kts 281°
2026-05-05 11:29 49.85545 7.81147 15131 ft 412 kts 281°
2026-05-05 11:29 49.86215 7.76872 15643 ft 415 kts 281°
2026-05-05 11:29 49.86902 7.72508 16142 ft 418 kts 281°
2026-05-05 11:30 49.87590 7.68108 16623 ft 421 kts 280°
2026-05-05 11:30 49.88284 7.63618 17115 ft 424 kts 280°
2026-05-05 11:30 49.88969 7.59152 17574 ft 427 kts 280°
2026-05-05 11:30 49.89648 7.54711 18002 ft 430 kts 280°
2026-05-05 11:31 49.90340 7.50181 18446 ft 433 kts 280°
2026-05-05 11:31 49.91044 7.45559 18913 ft 435 kts 280°
2026-05-05 11:31 49.91739 7.40985 19353 ft 438 kts 280°
2026-05-05 11:31 49.92438 7.36372 19781 ft 440 kts 280°
2026-05-05 11:32 49.93140 7.31734 20202 ft 442 kts 280°
2026-05-05 11:32 49.93842 7.27075 20595 ft 445 kts 280°
2026-05-05 11:32 49.94547 7.22387 20981 ft 447 kts 280°
2026-05-05 11:32 49.95252 7.17679 21364 ft 449 kts 280°
2026-05-05 11:33 49.95960 7.12946 21728 ft 451 kts 280°
2026-05-05 11:33 49.96659 7.08248 22065 ft 453 kts 280°
2026-05-05 11:33 49.97369 7.03472 22399 ft 455 kts 280°
2026-05-05 11:33 49.98082 6.98667 22722 ft 457 kts 280°
2026-05-05 11:34 49.98793 6.93841 23043 ft 459 kts 279°
2026-05-05 11:34 49.99278 6.88944 23349 ft 458 kts 271°
2026-05-05 11:34 49.99243 6.84005 23672 ft 457 kts 264°
2026-05-05 11:34 49.99042 6.79074 23979 ft 459 kts 264°
2026-05-05 11:35 49.98848 6.74114 24250 ft 461 kts 265°
2026-05-05 11:35 49.98682 6.69123 24534 ft 463 kts 265°
2026-05-05 11:35 49.98533 6.64119 24828 ft 464 kts 265°
2026-05-05 11:35 49.98322 6.59126 25109 ft 464 kts 260°
2026-05-05 11:36 49.97683 6.54220 25364 ft 463 kts 252°
2026-05-05 11:36 49.96567 6.49543 25679 ft 461 kts 244°
2026-05-05 11:36 49.95244 6.45024 26099 ft 458 kts 244°
2026-05-05 11:36 49.93939 6.40529 26524 ft 456 kts 244°
2026-05-05 11:37 49.92663 6.36038 26940 ft 454 kts 244°
2026-05-05 11:37 49.91404 6.31554 27320 ft 452 kts 244°
2026-05-05 11:37 49.90151 6.27083 27686 ft 451 kts 244°
2026-05-05 11:37 49.88858 6.22667 28049 ft 449 kts 243°
2026-05-05 11:38 49.87574 6.18259 28418 ft 448 kts 244°
2026-05-05 11:38 49.86303 6.13864 28784 ft 446 kts 241°
2026-05-05 11:38 49.84743 6.09755 29145 ft 441 kts 233°
2026-05-05 11:38 49.82949 6.05910 29524 ft 439 kts 232°
2026-05-05 11:39 49.81157 6.02104 29908 ft 437 kts 232°
2026-05-05 11:39 49.79383 5.98296 30233 ft 436 kts 232°
2026-05-05 11:39 49.77628 5.94479 30590 ft 434 kts 232°
2026-05-05 11:39 49.75892 5.90693 30980 ft 430 kts 232°
2026-05-05 11:40 49.74793 5.88144 31231 ft 430 kts 237°
2026-05-05 11:40 49.73430 5.84036 31567 ft 431 kts 245°
2026-05-05 11:40 49.72415 5.79678 31875 ft 430 kts 247°
2026-05-05 11:40 49.71432 5.75320 32166 ft 429 kts 247°
2026-05-05 11:41 49.70442 5.70982 32486 ft 427 kts 246°
2026-05-05 11:41 49.69449 5.66678 32803 ft 424 kts 246°
2026-05-05 11:41 49.68452 5.62404 33101 ft 423 kts 246°
2026-05-05 11:41 49.67450 5.58140 33333 ft 422 kts 246°
2026-05-05 11:42 49.66448 5.53886 33546 ft 422 kts 246°
2026-05-05 11:42 49.65446 5.49643 33821 ft 419 kts 245°
2026-05-05 11:42 49.64448 5.45418 33845 ft 420 kts 245°
2026-05-05 11:43 49.62443 5.36961 33858 ft 420 kts 246°
2026-05-05 11:43 49.60599 5.28397 33873 ft 421 kts 247°
2026-05-05 11:44 49.58815 5.19790 33875 ft 423 kts 250°
2026-05-05 11:44 49.57424 5.10942 33885 ft 426 kts 252°
2026-05-05 11:45 49.56136 5.02022 33887 ft 427 kts 252°
2026-05-05 11:45 49.54819 4.93111 33887 ft 427 kts 251°
2026-05-05 11:46 49.53470 4.84220 33885 ft 427 kts 251°
2026-05-05 11:46 49.52101 4.75321 33870 ft 428 kts 251°
2026-05-05 11:47 49.50721 4.66404 33859 ft 428 kts 251°
2026-05-05 11:47 49.49334 4.57492 33863 ft 428 kts 251°
2026-05-05 11:48 49.47243 4.44146 33861 ft 427 kts 251°
2026-05-05 11:48 49.45843 4.35272 33860 ft 426 kts 251°
2026-05-05 11:49 49.44443 4.26430 33865 ft 426 kts 251°
2026-05-05 11:49 49.43033 4.17592 33860 ft 426 kts 251°
2026-05-05 11:50 49.41616 4.08763 33859 ft 426 kts 251°
2026-05-05 11:50 49.40196 3.99951 33864 ft 425 kts 251°
2026-05-05 11:51 49.38769 3.91142 33853 ft 425 kts 250°
2026-05-05 11:51 49.37344 3.82399 33858 ft 425 kts 250°
2026-05-05 11:52 49.35902 3.73592 33867 ft 426 kts 250°
2026-05-05 11:52 49.34449 3.64765 33861 ft 428 kts 250°
2026-05-05 11:53 49.32983 3.55917 33869 ft 430 kts 250°
2026-05-05 11:53 49.31503 3.47013 33863 ft 432 kts 250°
2026-05-05 11:54 49.30002 3.38032 33861 ft 433 kts 250°
2026-05-05 11:54 49.28498 3.29077 33861 ft 435 kts 250°
2026-05-05 11:55 49.26986 3.20124 33863 ft 436 kts 250°
2026-05-05 11:55 49.25459 3.11131 33859 ft 437 kts 250°
2026-05-05 11:56 49.23912 3.02064 33867 ft 438 kts 250°
2026-05-05 11:56 49.22364 2.93046 33857 ft 438 kts 250°
2026-05-05 11:57 49.20815 2.84056 33862 ft 438 kts 250°
2026-05-05 11:57 49.19252 2.75034 33861 ft 438 kts 250°
2026-05-05 11:58 49.17685 2.66038 33860 ft 438 kts 249°
2026-05-05 11:58 49.16111 2.57046 33862 ft 438 kts 249°
2026-05-05 11:59 49.14530 2.48052 33860 ft 439 kts 249°
2026-05-05 11:59 49.12954 2.39044 33859 ft 440 kts 251°
2026-05-05 12:00 49.11997 2.29748 33866 ft 445 kts 257°
2026-05-05 12:00 49.11197 2.20389 33858 ft 445 kts 256°
2026-05-05 12:01 49.10322 2.11051 33860 ft 444 kts 256°
2026-05-05 12:01 49.09115 2.01878 33854 ft 436 kts 245°
2026-05-05 12:02 49.06661 1.93510 33856 ft 433 kts 240°
2026-05-05 12:02 49.04096 1.85195 33867 ft 434 kts 240°
2026-05-05 12:03 49.01542 1.76822 33864 ft 437 kts 240°
2026-05-05 12:03 48.98986 1.68393 33863 ft 440 kts 240°
2026-05-05 12:04 48.96415 1.59919 33869 ft 442 kts 240°
2026-05-05 12:04 48.93827 1.51425 33873 ft 443 kts 240°
2026-05-05 12:05 48.91225 1.42915 33881 ft 444 kts 240°
2026-05-05 12:05 48.88612 1.34401 33880 ft 444 kts 240°
2026-05-05 12:06 48.85994 1.25898 33874 ft 445 kts 240°
2026-05-05 12:06 48.83385 1.17456 33883 ft 444 kts 240°
2026-05-05 12:07 48.80737 1.08912 33879 ft 444 kts 240°
2026-05-05 12:07 48.78103 1.00440 33879 ft 444 kts 240°
2026-05-05 12:08 48.75479 0.92032 33876 ft 444 kts 240°
2026-05-05 12:08 48.72568 0.83745 33886 ft 440 kts 234°
2026-05-05 12:09 48.69323 0.75869 33878 ft 444 kts 234°
2026-05-05 12:09 48.66034 0.67941 33891 ft 452 kts 234°
2026-05-05 12:10 48.62685 0.59760 33881 ft 456 kts 235°
2026-05-05 12:10 48.59350 0.51580 33878 ft 458 kts 235°
2026-05-05 12:11 48.55999 0.43372 33884 ft 459 kts 234°
2026-05-05 12:11 48.52640 0.35182 33874 ft 459 kts 234°
2026-05-05 12:12 48.49270 0.26998 33875 ft 459 kts 234°
2026-05-05 12:12 48.45920 0.18882 33881 ft 459 kts 234°
2026-05-05 12:13 48.42548 0.10735 33881 ft 458 kts 234°
2026-05-05 12:13 48.39175 0.02607 33878 ft 458 kts 234°
2026-05-05 12:14 48.35775 -0.05486 33880 ft 457 kts 233°
2026-05-05 12:14 48.31996 -0.13142 33885 ft 456 kts 230°
2026-05-05 12:15 48.28139 -0.20700 33880 ft 456 kts 231°
2026-05-05 12:15 48.24326 -0.28312 33875 ft 456 kts 230°
2026-05-05 12:16 48.20478 -0.35861 33884 ft 456 kts 230°
2026-05-05 12:16 48.16616 -0.43390 33878 ft 456 kts 230°
2026-05-05 12:17 48.12751 -0.50917 33880 ft 456 kts 230°
2026-05-05 12:17 48.08885 -0.58438 33886 ft 456 kts 230°
2026-05-05 12:18 48.05011 -0.65955 33886 ft 456 kts 230°
2026-05-05 12:18 48.01128 -0.73466 33892 ft 457 kts 230°
2026-05-05 12:19 47.97235 -0.80977 33882 ft 458 kts 229°
2026-05-05 12:19 47.93326 -0.88496 33891 ft 459 kts 229°
2026-05-05 12:20 47.89407 -0.96016 33892 ft 460 kts 229°
2026-05-05 12:20 47.86109 -1.02328 33885 ft 461 kts 229°
2026-05-05 12:21 47.82163 -1.09863 33888 ft 462 kts 229°
2026-05-05 12:21 47.78203 -1.17401 33885 ft 463 kts 229°
2026-05-05 12:22 47.74236 -1.24935 33899 ft 463 kts 229°
2026-05-05 12:22 47.70268 -1.32448 33901 ft 462 kts 229°
2026-05-05 12:23 47.66294 -1.39952 33895 ft 462 kts 229°
2026-05-05 12:23 47.62321 -1.47436 33900 ft 462 kts 229°
2026-05-05 12:24 47.58310 -1.54765 33896 ft 460 kts 226°
2026-05-05 12:24 47.54020 -1.61781 33891 ft 459 kts 224°
2026-05-05 12:25 47.49703 -1.68746 33891 ft 459 kts 225°
2026-05-05 12:25 47.45413 -1.75745 33902 ft 459 kts 225°
2026-05-05 12:26 47.41133 -1.82746 33896 ft 459 kts 225°
2026-05-05 12:26 47.36849 -1.89728 33900 ft 459 kts 225°
2026-05-05 12:27 47.32010 -1.95710 33902 ft 452 kts 208°
2026-05-05 12:27 47.26614 -2.00431 33904 ft 451 kts 208°
2026-05-05 12:28 47.21215 -2.05151 33907 ft 451 kts 208°
2026-05-05 12:28 47.15833 -2.09916 33909 ft 452 kts 208°
2026-05-05 12:29 47.10450 -2.14702 33906 ft 452 kts 209°
2026-05-05 12:29 47.05068 -2.19478 33911 ft 453 kts 209°
2026-05-05 12:30 46.99665 -2.24262 33910 ft 454 kts 209°
2026-05-05 12:30 46.94260 -2.29031 33905 ft 453 kts 209°
2026-05-05 12:31 46.88854 -2.33791 33907 ft 453 kts 209°
2026-05-05 12:31 46.83447 -2.38539 33907 ft 453 kts 209°
2026-05-05 12:32 46.78043 -2.43280 33906 ft 453 kts 209°
2026-05-05 12:32 46.72640 -2.48013 33909 ft 453 kts 209°
2026-05-05 12:33 46.67233 -2.52740 33908 ft 453 kts 209°
2026-05-05 12:33 46.61830 -2.57449 33915 ft 453 kts 209°
2026-05-05 12:34 46.56429 -2.62145 33917 ft 452 kts 209°
2026-05-05 12:34 46.51021 -2.66838 33917 ft 452 kts 209°
2026-05-05 12:35 46.45618 -2.71515 33916 ft 452 kts 209°
2026-05-05 12:35 46.40207 -2.76190 33919 ft 452 kts 209°
2026-05-05 12:36 46.34799 -2.80852 33925 ft 452 kts 209°
2026-05-05 12:36 46.29390 -2.85504 33928 ft 453 kts 209°
2026-05-05 12:37 46.24176 -2.90608 33931 ft 454 kts 218°
2026-05-05 12:37 46.19368 -2.96557 33928 ft 456 kts 219°
2026-05-05 12:38 46.14563 -3.02539 33925 ft 457 kts 219°
2026-05-05 12:38 46.09726 -3.08475 33936 ft 457 kts 219°
2026-05-05 12:39 46.04863 -3.14387 33951 ft 458 kts 219°
2026-05-05 12:39 45.99985 -3.20292 33943 ft 458 kts 218°
2026-05-05 12:40 45.95099 -3.26191 33950 ft 459 kts 219°
2026-05-05 12:40 45.90208 -3.32083 33935 ft 459 kts 219°
2026-05-05 12:41 45.85310 -3.37971 33940 ft 459 kts 219°
2026-05-05 12:41 45.80413 -3.43846 33948 ft 459 kts 219°
2026-05-05 12:42 45.75518 -3.49702 33972 ft 458 kts 219°
2026-05-05 12:42 45.70624 -3.55548 33978 ft 458 kts 219°
2026-05-05 12:43 45.65732 -3.61373 33979 ft 458 kts 219°
2026-05-05 12:43 45.60836 -3.67182 33983 ft 457 kts 219°
2026-05-05 12:44 45.55971 -3.73000 33986 ft 455 kts 219°
2026-05-05 12:44 45.51094 -3.78756 33990 ft 455 kts 218°
2026-05-05 12:45 45.46204 -3.84497 33997 ft 456 kts 219°
2026-05-05 12:45 45.41302 -3.90261 33995 ft 458 kts 219°
2026-05-05 12:46 45.36385 -3.96035 33991 ft 458 kts 219°
2026-05-05 12:46 45.31463 -4.01802 33990 ft 459 kts 219°
2026-05-05 12:47 45.26526 -4.07575 33991 ft 460 kts 219°
2026-05-05 12:47 45.21582 -4.13343 33999 ft 460 kts 219°
2026-05-05 12:48 45.16628 -4.19103 34003 ft 461 kts 219°
2026-05-05 12:48 45.11665 -4.24865 34001 ft 461 kts 219°
2026-05-05 12:49 45.06704 -4.30609 33994 ft 461 kts 219°
2026-05-05 12:49 45.01744 -4.36341 33997 ft 460 kts 219°
2026-05-05 12:50 44.96794 -4.42049 34002 ft 459 kts 219°
2026-05-05 12:50 44.91847 -4.47736 34006 ft 458 kts 219°
2026-05-05 12:51 44.86913 -4.53400 34011 ft 457 kts 219°
2026-05-05 12:51 44.81977 -4.59053 34008 ft 457 kts 219°
2026-05-05 12:52 44.77050 -4.64681 34009 ft 456 kts 219°
2026-05-05 12:52 44.72122 -4.70298 34007 ft 456 kts 219°
2026-05-05 12:53 44.67193 -4.75902 34014 ft 455 kts 219°
2026-05-05 12:53 44.62264 -4.81496 34023 ft 456 kts 219°
2026-05-05 12:54 44.54849 -4.89890 34024 ft 457 kts 219°
2026-05-05 12:55 44.49875 -4.95438 34020 ft 458 kts 216°
2026-05-05 12:55 44.44507 -5.00289 34024 ft 460 kts 212°
2026-05-05 12:56 44.39035 -5.04928 34015 ft 460 kts 212°
2026-05-05 12:56 44.33569 -5.09601 34013 ft 460 kts 213°
2026-05-05 12:57 44.28125 -5.14310 34015 ft 460 kts 213°
2026-05-05 12:57 44.22687 -5.19033 34017 ft 461 kts 213°
2026-05-05 12:58 44.17242 -5.23752 34024 ft 461 kts 213°
2026-05-05 12:58 44.11796 -5.28457 34020 ft 461 kts 213°
2026-05-05 12:59 44.06384 -5.33124 34024 ft 461 kts 213°
2026-05-05 12:59 44.00924 -5.37825 34019 ft 462 kts 213°
2026-05-05 13:00 43.92721 -5.44859 34027 ft 462 kts 214°
2026-05-05 13:01 43.81791 -5.54199 34016 ft 461 kts 214°
2026-05-05 13:01 43.76335 -5.58846 34015 ft 460 kts 214°
2026-05-05 13:02 43.70886 -5.63478 34017 ft 460 kts 214°
2026-05-05 13:02 43.65441 -5.68096 34016 ft 459 kts 214°
2026-05-05 13:03 43.60001 -5.72700 34021 ft 459 kts 214°
2026-05-05 13:03 43.55437 -5.76556 34017 ft 459 kts 214°
2026-05-05 13:04 43.50030 -5.81114 34014 ft 459 kts 214°
2026-05-05 13:04 43.44580 -5.85700 34028 ft 459 kts 214°
2026-05-05 13:05 43.39126 -5.90277 34018 ft 459 kts 214°
2026-05-05 13:05 43.33670 -5.94848 34018 ft 459 kts 214°
2026-05-05 13:06 43.28210 -5.99411 34028 ft 459 kts 214°
2026-05-05 13:06 43.22755 -6.03961 34014 ft 459 kts 214°
2026-05-05 13:07 43.17294 -6.08505 34018 ft 459 kts 214°
2026-05-05 13:07 43.11820 -6.13052 34012 ft 460 kts 214°
2026-05-05 13:08 43.06370 -6.17570 34019 ft 459 kts 214°
2026-05-05 13:08 43.00902 -6.22092 34017 ft 459 kts 214°
2026-05-05 13:09 42.95436 -6.26602 34016 ft 459 kts 214°
2026-05-05 13:09 42.89982 -6.31094 34010 ft 457 kts 214°
2026-05-05 13:10 42.84540 -6.35567 34025 ft 457 kts 214°
2026-05-05 13:10 42.79090 -6.40038 34017 ft 457 kts 215°
2026-05-05 13:11 42.73642 -6.44496 34022 ft 457 kts 215°
2026-05-05 13:11 42.68192 -6.48947 34015 ft 457 kts 215°
2026-05-05 13:12 42.62748 -6.53384 34013 ft 456 kts 215°
2026-05-05 13:12 42.57306 -6.57807 34011 ft 455 kts 215°
2026-05-05 13:13 42.51875 -6.62216 34022 ft 454 kts 215°
2026-05-05 13:13 42.46454 -6.66609 34024 ft 454 kts 215°
2026-05-05 13:14 42.41028 -6.70995 34023 ft 454 kts 215°
2026-05-05 13:14 42.35606 -6.75369 34028 ft 454 kts 215°
2026-05-05 13:15 42.30177 -6.79742 34033 ft 454 kts 215°
2026-05-05 13:15 42.24755 -6.84100 34049 ft 454 kts 215°
2026-05-05 13:16 42.19329 -6.88452 34029 ft 454 kts 215°
2026-05-05 13:16 42.13892 -6.92798 34045 ft 454 kts 215°
2026-05-05 13:17 42.08454 -6.97144 34053 ft 455 kts 215°
2026-05-05 13:17 42.02956 -7.01528 34045 ft 457 kts 215°
2026-05-05 13:18 41.97477 -7.05887 34054 ft 458 kts 216°
2026-05-05 13:18 41.92007 -7.10226 34051 ft 456 kts 216°
2026-05-05 13:19 41.86560 -7.14541 34049 ft 453 kts 216°
2026-05-05 13:19 41.81144 -7.18827 34054 ft 451 kts 216°
2026-05-05 13:20 41.75743 -7.23091 34058 ft 449 kts 216°
2026-05-05 13:20 41.70390 -7.27378 34064 ft 447 kts 217°
2026-05-05 13:21 41.65078 -7.31702 34067 ft 446 kts 217°
2026-05-05 13:21 41.59770 -7.36012 34064 ft 446 kts 217°
2026-05-05 13:22 41.54454 -7.40311 34066 ft 447 kts 217°
2026-05-05 13:22 41.49151 -7.44585 34078 ft 449 kts 217°
2026-05-05 13:23 41.43790 -7.48899 34081 ft 451 kts 217°
2026-05-05 13:23 41.38408 -7.53219 34083 ft 452 kts 217°
2026-05-05 13:24 41.33016 -7.57540 34078 ft 453 kts 217°
2026-05-05 13:24 41.27613 -7.61860 34081 ft 453 kts 217°
2026-05-05 13:25 41.22227 -7.66156 34069 ft 451 kts 217°
2026-05-05 13:25 41.16855 -7.70435 34079 ft 449 kts 217°
2026-05-05 13:26 41.11501 -7.74694 34085 ft 448 kts 217°
2026-05-05 13:26 41.06163 -7.78932 34090 ft 446 kts 217°
2026-05-05 13:27 41.00839 -7.83153 34092 ft 445 kts 217°
2026-05-05 13:27 40.95590 -7.87443 34097 ft 442 kts 219°
2026-05-05 13:28 40.90405 -7.91803 34105 ft 440 kts 219°
2026-05-05 13:28 40.85242 -7.96141 34102 ft 439 kts 219°
2026-05-05 13:29 40.80087 -8.00446 34103 ft 438 kts 219°
2026-05-05 13:29 40.74929 -8.04733 34104 ft 437 kts 219°
2026-05-05 13:30 40.69786 -8.08999 34101 ft 436 kts 219°
2026-05-05 13:30 40.64647 -8.13253 34105 ft 436 kts 220°
2026-05-05 13:31 40.59510 -8.17500 34107 ft 436 kts 220°
2026-05-05 13:31 40.54371 -8.21741 34099 ft 436 kts 220°
2026-05-05 13:32 40.49229 -8.25974 34090 ft 436 kts 220°
2026-05-05 13:32 40.44125 -8.30167 34097 ft 435 kts 220°
2026-05-05 13:33 40.39000 -8.34356 34102 ft 434 kts 219°
2026-05-05 13:33 40.33771 -8.38327 34103 ft 435 kts 217°
2026-05-05 13:34 40.28503 -8.42219 34102 ft 435 kts 217°
2026-05-05 13:34 40.23207 -8.46152 34392 ft 438 kts 217°
2026-05-05 13:35 40.20563 -8.48124 34688 ft 436 kts 217°
2026-05-05 13:35 40.17929 -8.50091 34919 ft 436 kts 217°
2026-05-05 13:35 40.15298 -8.52057 35085 ft 436 kts 217°
2026-05-05 13:35 40.12653 -8.54037 35082 ft 440 kts 217°
2026-05-05 13:36 40.07353 -8.57994 35102 ft 437 kts 217°
2026-05-05 13:36 40.02082 -8.61920 35098 ft 435 kts 217°
2026-05-05 13:37 39.96835 -8.65823 35100 ft 433 kts 217°
2026-05-05 13:37 39.91618 -8.69694 35103 ft 431 kts 217°
2026-05-05 13:38 39.86416 -8.73551 35100 ft 430 kts 217°
2026-05-05 13:38 39.81230 -8.77389 35096 ft 428 kts 217°
2026-05-05 13:39 39.76052 -8.81214 35106 ft 428 kts 217°
2026-05-05 13:39 39.70878 -8.85029 35098 ft 428 kts 217°
2026-05-05 13:40 39.65694 -8.88844 35106 ft 429 kts 217°
2026-05-05 13:40 39.60498 -8.92664 35105 ft 430 kts 216°
2026-05-05 13:41 39.55281 -8.96492 35097 ft 431 kts 216°
2026-05-05 13:41 39.50051 -9.00321 35107 ft 432 kts 216°
2026-05-05 13:42 39.44805 -9.04156 35102 ft 433 kts 216°
2026-05-05 13:42 39.39551 -9.07988 35099 ft 434 kts 216°
2026-05-05 13:43 39.34295 -9.11815 35105 ft 433 kts 216°
2026-05-05 13:43 39.29044 -9.15633 35105 ft 433 kts 216°
2026-05-05 13:44 39.23793 -9.19442 35096 ft 432 kts 216°
2026-05-05 13:44 39.18591 -9.23211 35103 ft 431 kts 216°
2026-05-05 13:45 39.13323 -9.27021 35105 ft 431 kts 216°
2026-05-05 13:45 39.08099 -9.30793 35098 ft 430 kts 216°
2026-05-05 13:46 39.02880 -9.34555 35103 ft 430 kts 216°
2026-05-05 13:46 38.98546 -9.37676 35103 ft 430 kts 216°
2026-05-05 13:47 38.93330 -9.41424 35100 ft 429 kts 216°
2026-05-05 13:47 38.88119 -9.45160 35097 ft 429 kts 216°
2026-05-05 13:48 38.82915 -9.48886 35100 ft 428 kts 215°
2026-05-05 13:48 38.77718 -9.52602 35101 ft 427 kts 215°
2026-05-05 13:49 38.72534 -9.56300 35103 ft 426 kts 215°
2026-05-05 13:49 38.67357 -9.59989 35102 ft 425 kts 215°
2026-05-05 13:50 38.62185 -9.63670 35099 ft 425 kts 215°
2026-05-05 13:50 38.57022 -9.67339 35099 ft 425 kts 215°
2026-05-05 13:51 38.51854 -9.71002 35104 ft 424 kts 215°
2026-05-05 13:51 38.46697 -9.74651 35101 ft 424 kts 215°
2026-05-05 13:52 38.41539 -9.78296 35102 ft 424 kts 215°
2026-05-05 13:52 38.36380 -9.81936 35102 ft 424 kts 215°
2026-05-05 13:53 38.31224 -9.85569 35101 ft 423 kts 214°
2026-05-05 13:53 38.26070 -9.89193 35103 ft 423 kts 214°
2026-05-05 13:54 38.20919 -9.92810 35103 ft 423 kts 214°
2026-05-05 13:54 38.15767 -9.96419 35102 ft 423 kts 214°
2026-05-05 13:55 38.10612 -10.00026 35105 ft 423 kts 214°
2026-05-05 13:55 38.05460 -10.03625 35102 ft 423 kts 214°
2026-05-05 13:56 38.00307 -10.07218 35103 ft 423 kts 214°
2026-05-05 13:56 37.95154 -10.10807 35085 ft 423 kts 214°
2026-05-05 13:57 37.89995 -10.14394 35089 ft 423 kts 214°
2026-05-05 13:57 37.84836 -10.17975 35098 ft 423 kts 214°
2026-05-05 13:58 37.79672 -10.21554 35097 ft 423 kts 214°
2026-05-05 13:58 37.74510 -10.25124 35090 ft 423 kts 214°
2026-05-05 13:59 37.66793 -10.30453 35094 ft 423 kts 214°
2026-05-05 14:00 37.59005 -10.35818 35096 ft 423 kts 214°
2026-05-05 14:00 37.53831 -10.39377 35086 ft 424 kts 214°
2026-05-05 14:01 37.48660 -10.42926 35085 ft 423 kts 214°
2026-05-05 14:01 37.43486 -10.46471 35096 ft 423 kts 214°
2026-05-05 14:02 37.38310 -10.50012 35082 ft 423 kts 213°
2026-05-05 14:02 37.33137 -10.53545 35082 ft 423 kts 213°
2026-05-05 14:03 37.27957 -10.57077 35078 ft 423 kts 213°
2026-05-05 14:03 37.22777 -10.60601 35091 ft 424 kts 213°
2026-05-05 14:04 37.17625 -10.64106 35077 ft 424 kts 213°
2026-05-05 14:04 37.12403 -10.67654 35083 ft 424 kts 213°
2026-05-05 14:05 37.07239 -10.71151 35091 ft 425 kts 213°
2026-05-05 14:05 37.02003 -10.74694 35087 ft 425 kts 213°
2026-05-05 14:06 36.96803 -10.78208 35100 ft 425 kts 213°
2026-05-05 14:06 36.91637 -10.81694 35100 ft 424 kts 213°
2026-05-05 14:07 36.86403 -10.85219 35100 ft 425 kts 213°
2026-05-05 14:07 36.81231 -10.88697 35100 ft 425 kts 213°
2026-05-05 14:08 36.76021 -10.92193 35101 ft 426 kts 213°
2026-05-05 14:08 36.70807 -10.95688 35112 ft 425 kts 212°
2026-05-05 14:09 36.65594 -10.99179 35117 ft 425 kts 212°
2026-05-05 14:09 36.60382 -11.02663 35121 ft 425 kts 212°
2026-05-05 14:10 36.55171 -11.06140 35119 ft 425 kts 212°
2026-05-05 14:10 36.49961 -11.09610 35122 ft 425 kts 212°
2026-05-05 14:11 36.44748 -11.13079 35120 ft 425 kts 212°
2026-05-05 14:11 36.39536 -11.16541 35119 ft 425 kts 212°
2026-05-05 14:12 36.34322 -11.20000 35121 ft 425 kts 212°
2026-05-05 14:12 36.29137 -11.23434 35121 ft 426 kts 212°
2026-05-05 14:13 36.23905 -11.26892 35119 ft 426 kts 212°
2026-05-05 14:13 36.18668 -11.30350 35120 ft 427 kts 212°
2026-05-05 14:14 36.13424 -11.33807 35111 ft 428 kts 212°
2026-05-05 14:14 36.08172 -11.37266 35110 ft 428 kts 212°
2026-05-05 14:15 36.02916 -11.40720 35112 ft 428 kts 212°
2026-05-05 14:15 35.97660 -11.44168 35109 ft 427 kts 212°
2026-05-05 14:16 35.92710 -11.48123 35115 ft 424 kts 219°
2026-05-05 14:16 35.87933 -11.52402 35110 ft 424 kts 219°
2026-05-05 14:17 35.83156 -11.56669 35112 ft 425 kts 219°
2026-05-05 14:17 35.78344 -11.60913 35113 ft 425 kts 219°
2026-05-05 14:18 35.73521 -11.65139 35110 ft 426 kts 218°
2026-05-05 14:18 35.68694 -11.69357 35113 ft 426 kts 218°
2026-05-05 14:19 35.63864 -11.73571 35111 ft 426 kts 218°
2026-05-05 14:19 35.59030 -11.77782 35106 ft 426 kts 218°
2026-05-05 14:20 35.54195 -11.81988 35100 ft 426 kts 218°
2026-05-05 14:20 35.49354 -11.86193 35103 ft 427 kts 218°
2026-05-05 14:21 35.44505 -11.90397 35102 ft 427 kts 218°
2026-05-05 14:21 35.39663 -11.94593 35098 ft 426 kts 218°
2026-05-05 14:22 35.34849 -11.98757 35103 ft 426 kts 218°
2026-05-05 14:22 35.30003 -12.02940 35097 ft 427 kts 218°
2026-05-05 14:23 35.25145 -12.07129 35104 ft 427 kts 218°
2026-05-05 14:23 35.20254 -12.11341 35098 ft 428 kts 218°
2026-05-05 14:24 35.15384 -12.15526 35105 ft 428 kts 218°
2026-05-05 14:24 35.10535 -12.19689 35099 ft 429 kts 218°
2026-05-05 14:25 35.05645 -12.23880 35100 ft 430 kts 218°
2026-05-05 14:25 35.00744 -12.28075 35103 ft 430 kts 218°
2026-05-05 14:26 34.95841 -12.32265 35105 ft 431 kts 217°
2026-05-05 14:26 34.90930 -12.36454 35095 ft 431 kts 217°
2026-05-05 14:27 34.86012 -12.40643 35096 ft 432 kts 217°
2026-05-05 14:27 34.81087 -12.44833 35091 ft 432 kts 217°
2026-05-05 14:28 34.76162 -12.49017 35098 ft 432 kts 217°
2026-05-05 14:28 34.71230 -12.53201 35081 ft 432 kts 217°
2026-05-05 14:29 34.66295 -12.57377 35073 ft 433 kts 217°
2026-05-05 14:29 34.61354 -12.61555 35080 ft 433 kts 217°
2026-05-05 14:30 34.56414 -12.65728 35077 ft 433 kts 217°
2026-05-05 14:30 34.51474 -12.69896 35074 ft 433 kts 217°
2026-05-05 14:31 34.46533 -12.74056 35089 ft 432 kts 217°
2026-05-05 14:31 34.41585 -12.78215 35076 ft 433 kts 217°
2026-05-05 14:32 34.37475 -12.81666 35080 ft 433 kts 217°
2026-05-05 14:32 34.32520 -12.85822 35084 ft 433 kts 217°
2026-05-05 14:33 34.27561 -12.89975 35084 ft 434 kts 217°
2026-05-05 14:33 34.22599 -12.94138 35091 ft 434 kts 217°
2026-05-05 14:34 34.17641 -12.98319 35088 ft 435 kts 217°
2026-05-05 14:34 34.12678 -13.02501 35083 ft 435 kts 217°
2026-05-05 14:35 34.07710 -13.06679 35080 ft 436 kts 217°
2026-05-05 14:35 34.02735 -13.10855 35090 ft 436 kts 217°
2026-05-05 14:36 33.97755 -13.15029 35087 ft 436 kts 217°
2026-05-05 14:36 33.92792 -13.19182 35083 ft 433 kts 217°
2026-05-05 14:37 33.87850 -13.23306 35089 ft 432 kts 217°
2026-05-05 14:37 33.82922 -13.27420 35096 ft 431 kts 217°
2026-05-05 14:38 33.77994 -13.31530 35082 ft 431 kts 217°
2026-05-05 14:38 33.73068 -13.35628 35096 ft 430 kts 216°
2026-05-05 14:39 33.68144 -13.39719 35093 ft 430 kts 216°
2026-05-05 14:39 33.63222 -13.43802 35084 ft 430 kts 216°
2026-05-05 14:40 33.58290 -13.47889 35095 ft 431 kts 216°
2026-05-05 14:40 33.53353 -13.51975 35094 ft 431 kts 216°
2026-05-05 14:41 33.48417 -13.56053 35091 ft 431 kts 216°
2026-05-05 14:41 33.43509 -13.60103 35096 ft 431 kts 216°
2026-05-05 14:42 33.38567 -13.64174 35098 ft 431 kts 217°
2026-05-05 14:42 33.33629 -13.68236 35093 ft 430 kts 217°
2026-05-05 14:43 33.28703 -13.72284 35099 ft 429 kts 217°
2026-05-05 14:43 33.23782 -13.76322 35103 ft 428 kts 217°
2026-05-05 14:44 33.18880 -13.80340 35110 ft 427 kts 217°
2026-05-05 14:44 33.13991 -13.84340 35112 ft 425 kts 217°
2026-05-05 14:45 33.09104 -13.88312 35109 ft 424 kts 217°
2026-05-05 14:45 33.04199 -13.92286 35110 ft 423 kts 217°
2026-05-05 14:46 32.99342 -13.96218 35117 ft 421 kts 217°
2026-05-05 14:46 32.94504 -14.00133 35120 ft 420 kts 217°
2026-05-05 14:47 32.89680 -14.04033 35117 ft 419 kts 217°
2026-05-05 14:47 32.84848 -14.07935 35124 ft 420 kts 217°
2026-05-05 14:48 32.80015 -14.11833 35125 ft 420 kts 217°
2026-05-05 14:48 32.75171 -14.15733 35121 ft 421 kts 217°
2026-05-05 14:49 32.70360 -14.19600 35119 ft 420 kts 217°
2026-05-05 14:49 32.65527 -14.23481 35117 ft 419 kts 217°
2026-05-05 14:50 32.60709 -14.27345 35108 ft 418 kts 217°
2026-05-05 14:50 32.55897 -14.31194 35110 ft 417 kts 217°
2026-05-05 14:51 32.51107 -14.35025 35112 ft 415 kts 217°
2026-05-05 14:51 32.46330 -14.38844 35114 ft 414 kts 217°
2026-05-05 14:52 32.41554 -14.42653 35110 ft 414 kts 217°
2026-05-05 14:52 32.36783 -14.46454 35113 ft 413 kts 217°
2026-05-05 14:53 32.32013 -14.50250 35112 ft 413 kts 217°
2026-05-05 14:53 32.27239 -14.54044 35112 ft 413 kts 217°
2026-05-05 14:54 32.22464 -14.57833 35110 ft 414 kts 217°
2026-05-05 14:54 32.17685 -14.61620 35112 ft 414 kts 217°
2026-05-05 14:55 32.12900 -14.65409 35108 ft 414 kts 217°
2026-05-05 14:55 32.08103 -14.69201 35112 ft 415 kts 217°
2026-05-05 14:56 32.03295 -14.72998 35114 ft 417 kts 217°
2026-05-05 14:56 31.98470 -14.76801 35110 ft 418 kts 217°
2026-05-05 14:57 31.93657 -14.80590 35107 ft 414 kts 218°
2026-05-05 14:57 31.88884 -14.84342 35105 ft 411 kts 218°
2026-05-05 14:58 31.84140 -14.88069 35107 ft 410 kts 218°
2026-05-05 14:58 31.79407 -14.91782 35112 ft 408 kts 218°
2026-05-05 14:59 31.74683 -14.95486 35101 ft 408 kts 218°
2026-05-05 14:59 31.69958 -14.99186 35101 ft 408 kts 217°
2026-05-05 15:00 31.66034 -15.02252 35105 ft 409 kts 217°
2026-05-05 15:00 31.60497 -15.06574 35107 ft 410 kts 217°
2026-05-05 15:01 31.55736 -15.10284 35102 ft 411 kts 217°
2026-05-05 15:01 31.50967 -15.13999 35096 ft 412 kts 217°
2026-05-05 15:02 31.46185 -15.17719 35083 ft 412 kts 217°
2026-05-05 15:02 31.41403 -15.21434 35089 ft 413 kts 217°
2026-05-05 15:03 31.36620 -15.25146 35088 ft 413 kts 217°
2026-05-05 15:03 31.31838 -15.28853 35077 ft 412 kts 217°
2026-05-05 15:04 31.26948 -15.32372 35086 ft 414 kts 213°
2026-05-05 15:04 31.21877 -15.35560 35082 ft 413 kts 212°
2026-05-05 15:05 31.14290 -15.40296 35083 ft 411 kts 213°
2026-05-05 15:06 31.09277 -15.43470 35091 ft 409 kts 213°
2026-05-05 15:06 31.04288 -15.46638 35081 ft 407 kts 213°
2026-05-05 15:07 30.99317 -15.49793 35090 ft 406 kts 213°
2026-05-05 15:07 30.94366 -15.52931 35084 ft 404 kts 214°
2026-05-05 15:08 30.89468 -15.56034 35078 ft 402 kts 214°
2026-05-05 15:08 30.84566 -15.59135 35088 ft 400 kts 214°
2026-05-05 15:09 30.79694 -15.62214 35069 ft 398 kts 214°
2026-05-05 15:09 30.74830 -15.65285 35080 ft 398 kts 214°
2026-05-05 15:10 30.69966 -15.68352 35083 ft 397 kts 214°
2026-05-05 15:10 30.65110 -15.71409 35070 ft 397 kts 214°
2026-05-05 15:11 30.60265 -15.74456 35075 ft 395 kts 215°
2026-05-05 15:11 30.55445 -15.77484 35086 ft 393 kts 215°
2026-05-05 15:12 30.50643 -15.80498 35089 ft 392 kts 215°
2026-05-05 15:12 30.45859 -15.83497 35088 ft 390 kts 215°
2026-05-05 15:13 30.41095 -15.86480 35085 ft 388 kts 215°
2026-05-05 15:13 30.36356 -15.89441 35077 ft 386 kts 215°
2026-05-05 15:14 30.31639 -15.92388 35086 ft 385 kts 215°
2026-05-05 15:14 30.26934 -15.95325 35079 ft 384 kts 215°
2026-05-05 15:15 30.22239 -15.98252 35086 ft 383 kts 215°
2026-05-05 15:15 30.17547 -16.01173 35085 ft 383 kts 215°
2026-05-05 15:16 30.12854 -16.04093 35074 ft 383 kts 215°
2026-05-05 15:16 30.08166 -16.07007 35089 ft 383 kts 215°
2026-05-05 15:17 30.04270 -16.09426 35079 ft 382 kts 216°
2026-05-05 15:17 29.99583 -16.12333 35080 ft 383 kts 215°
2026-05-05 15:18 29.94886 -16.15240 35080 ft 383 kts 215°
2026-05-05 15:18 29.90192 -16.18147 35087 ft 383 kts 215°
2026-05-05 15:19 29.85494 -16.21051 35082 ft 383 kts 215°
2026-05-05 15:19 29.80791 -16.23954 35083 ft 384 kts 215°
2026-05-05 15:20 29.76085 -16.26857 35086 ft 384 kts 215°
2026-05-05 15:20 29.71378 -16.29756 35085 ft 384 kts 215°
2026-05-05 15:21 29.66665 -16.32658 35089 ft 385 kts 215°
2026-05-05 15:21 29.61938 -16.35566 35085 ft 386 kts 215°
2026-05-05 15:22 29.57394 -16.38752 35103 ft 378 kts 224°
2026-05-05 15:22 29.53349 -16.42609 35099 ft 378 kts 225°
2026-05-05 15:23 29.49310 -16.46505 35094 ft 380 kts 225°
2026-05-05 15:23 29.45239 -16.50383 35089 ft 381 kts 224°
2026-05-05 15:24 29.41143 -16.54252 35084 ft 381 kts 224°
2026-05-05 15:24 29.37037 -16.58118 35040 ft 383 kts 224°
2026-05-05 15:25 29.32918 -16.61988 34893 ft 384 kts 224°
2026-05-05 15:25 29.30853 -16.63925 34714 ft 383 kts 224°
2026-05-05 15:25 29.28805 -16.65846 34675 ft 379 kts 224°
2026-05-05 15:26 29.24728 -16.69668 34543 ft 379 kts 224°
2026-05-05 15:26 29.20645 -16.73493 34420 ft 379 kts 224°
2026-05-05 15:27 29.16558 -16.77318 34294 ft 380 kts 223°
2026-05-05 15:27 29.12459 -16.81147 34174 ft 381 kts 223°
2026-05-05 15:28 29.08348 -16.84986 33756 ft 382 kts 223°
2026-05-05 15:28 29.06289 -16.86907 33130 ft 380 kts 223°
2026-05-05 15:28 29.04231 -16.88825 32375 ft 383 kts 223°
2026-05-05 15:28 29.02165 -16.90751 31641 ft 383 kts 223°
2026-05-05 15:29 29.00104 -16.92672 30876 ft 383 kts 223°
2026-05-05 15:29 28.98027 -16.94606 30111 ft 391 kts 223°
2026-05-05 15:29 28.95897 -16.96591 29266 ft 397 kts 223°
2026-05-05 15:29 28.93748 -16.98590 28364 ft 399 kts 223°
2026-05-05 15:30 28.91572 -17.00613 27464 ft 409 kts 222°
2026-05-05 15:30 28.89355 -17.02673 26792 ft 412 kts 222°
2026-05-05 15:30 28.87145 -17.04721 26122 ft 407 kts 222°
2026-05-05 15:30 28.84961 -17.06745 25450 ft 402 kts 222°
2026-05-05 15:31 28.82803 -17.08744 24792 ft 398 kts 222°
2026-05-05 15:31 28.80661 -17.10728 24144 ft 395 kts 221°
2026-05-05 15:31 28.78533 -17.12698 23487 ft 392 kts 221°
2026-05-05 15:31 28.76427 -17.14648 22844 ft 388 kts 221°
2026-05-05 15:32 28.74335 -17.16584 22203 ft 388 kts 221°
2026-05-05 15:32 28.72242 -17.18521 21580 ft 388 kts 221°
2026-05-05 15:32 28.70155 -17.20450 20948 ft 384 kts 221°
2026-05-05 15:32 28.68086 -17.22361 20313 ft 381 kts 221°
2026-05-05 15:33 28.66039 -17.24251 19692 ft 377 kts 221°
2026-05-05 15:33 28.64010 -17.26118 19084 ft 374 kts 220°
2026-05-05 15:33 28.61765 -17.27558 18241 ft 374 kts 202°
2026-05-05 15:33 28.59158 -17.27976 17140 ft 385 kts 185°
2026-05-05 15:34 28.56479 -17.27625 16056 ft 391 kts 173°
2026-05-05 15:34 28.53887 -17.26593 15004 ft 400 kts 158°
2026-05-05 15:34 28.51544 -17.24895 14095 ft 398 kts 150°
2026-05-05 15:34 28.49311 -17.23092 13403 ft 388 kts 149°
2026-05-05 15:35 28.47164 -17.21323 12827 ft 377 kts 148°
2026-05-05 15:35 28.45055 -17.19594 12294 ft 372 kts 149°
2026-05-05 15:35 28.42941 -17.17881 11756 ft 375 kts 148°
2026-05-05 15:35 28.40814 -17.16172 11279 ft 373 kts 148°
2026-05-05 15:36 28.38732 -17.14506 11130 ft 357 kts 148°
2026-05-05 15:36 28.36762 -17.12932 11068 ft 335 kts 148°
2026-05-05 15:36 28.34909 -17.11453 11055 ft 318 kts 148°
2026-05-05 15:36 28.33139 -17.10044 11046 ft 303 kts 149°
2026-05-05 15:37 28.31449 -17.08701 10708 ft 295 kts 149°
2026-05-05 15:37 28.29802 -17.07395 10522 ft 283 kts 149°
2026-05-05 15:37 28.28227 -17.06146 10358 ft 270 kts 149°
2026-05-05 15:37 28.26654 -17.05070 10090 ft 260 kts 156°
2026-05-05 15:38 28.25038 -17.04162 9708 ft 258 kts 157°
2026-05-05 15:38 28.23417 -17.03283 9291 ft 258 kts 157°
2026-05-05 15:38 28.21798 -17.02401 8872 ft 258 kts 156°
2026-05-05 15:38 28.20182 -17.01513 8485 ft 258 kts 156°
2026-05-05 15:39 28.18580 -17.00622 8119 ft 255 kts 155°
2026-05-05 15:39 28.16994 -16.99734 7754 ft 253 kts 155°
2026-05-05 15:39 28.15421 -16.98851 7382 ft 251 kts 155°
2026-05-05 15:39 28.13863 -16.97975 7067 ft 249 kts 154°
2026-05-05 15:40 28.12312 -16.97101 6817 ft 249 kts 154°
2026-05-05 15:40 28.10756 -16.96223 6565 ft 250 kts 154°
2026-05-05 15:40 28.09202 -16.95345 6265 ft 248 kts 154°
2026-05-05 15:40 28.07669 -16.94479 5990 ft 245 kts 154°
2026-05-05 15:41 28.06163 -16.93629 5727 ft 237 kts 154°
2026-05-05 15:41 28.04718 -16.92813 5503 ft 226 kts 154°
2026-05-05 15:41 28.03334 -16.92031 5301 ft 219 kts 154°
2026-05-05 15:41 28.01971 -16.91263 5091 ft 218 kts 154°
2026-05-05 15:42 28.00646 -16.90514 4861 ft 208 kts 154°
2026-05-05 15:42 27.99386 -16.89804 4758 ft 199 kts 154°
2026-05-05 15:42 27.98143 -16.89105 4665 ft 201 kts 153°
2026-05-05 15:42 27.96891 -16.88396 4568 ft 201 kts 154°
2026-05-05 15:43 27.95646 -16.87690 4490 ft 201 kts 151°
2026-05-05 15:43 27.94686 -16.86591 4358 ft 199 kts 110°
2026-05-05 15:43 27.94675 -16.85075 4204 ft 197 kts 65°
2026-05-05 15:43 27.95299 -16.83684 4033 ft 201 kts 65°
2026-05-05 15:44 27.95815 -16.82233 3915 ft 197 kts 68°
2026-05-05 15:44 27.96298 -16.80810 3807 ft 192 kts 68°
2026-05-05 15:44 27.96780 -16.79395 3656 ft 196 kts 67°
2026-05-05 15:44 27.97281 -16.77954 3458 ft 197 kts 68°
2026-05-05 15:45 27.97772 -16.76523 3260 ft 192 kts 67°
2026-05-05 15:45 27.98244 -16.75159 3157 ft 178 kts 68°
2026-05-05 15:45 27.98689 -16.73869 2985 ft 178 kts 66°
2026-05-05 15:45 27.99146 -16.72557 2759 ft 179 kts 67°
2026-05-05 15:46 27.99592 -16.71271 2520 ft 170 kts 68°
2026-05-05 15:46 28.00005 -16.70077 2292 ft 161 kts 68°
2026-05-05 15:46 28.00406 -16.68918 2122 ft 156 kts 69°
2026-05-05 15:46 28.00799 -16.67782 1896 ft 153 kts 70°
2026-05-05 15:47 28.01182 -16.66674 1688 ft 149 kts 70°
2026-05-05 15:47 28.01431 -16.65952 1565 ft 149 kts 70°
2026-05-05 15:47 28.01938 -16.64494 1301 ft 149 kts 72°
2026-05-05 15:47 28.02314 -16.63404 1096 ft 149 kts 72°
2026-05-05 15:48 28.02690 -16.62307 895 ft 151 kts 72°
2026-05-05 15:48 28.03075 -16.61211 671 ft 149 kts 71°
2026-05-05 15:48 28.03452 -16.60137 486 ft 146 kts 71°
2026-05-05 15:48 28.03809 -16.59085 293 ft 140 kts 71°
2026-05-05 15:49 28.04163 -16.58072 203 ft 134 kts 70°
2026-05-05 15:49 28.04458 -16.57220 202 ft 95 kts 68°
2026-05-05 15:49 28.04632 -16.56721 202 ft 44 kts 69°
2026-05-05 15:49 28.04767 -16.56494 215 ft 30 kts 43°
2026-05-05 15:50 28.04897 -16.56367 223 ft 12 kts 11°
2026-05-05 15:50 28.04922 -16.56438 220 ft 12 kts 246°
2026-05-05 15:50 28.04917 -16.56452 218 ft 0 kts 249°
2026-05-05 15:50 28.04916 -16.56455 218 ft 0 kts 249°
2026-05-05 15:51 28.04915 -16.56458 218 ft 0 kts 249°
2026-05-05 15:51 28.04914 -16.56461 218 ft 0 kts 249°
2026-05-05 15:51 28.04913 -16.56463 218 ft 0 kts 249°
2026-05-05 15:51 28.04912 -16.56467 218 ft 1 kts 249°
2026-05-05 15:52 28.04899 -16.56507 218 ft 10 kts 249°
2026-05-05 15:52 28.04872 -16.56585 218 ft 11 kts 249°
2026-05-05 15:52 28.04841 -16.56672 218 ft 13 kts 248°
2026-05-05 15:52 28.04806 -16.56771 218 ft 13 kts 248°
2026-05-05 15:53 28.04773 -16.56866 218 ft 13 kts 249°
2026-05-05 15:53 28.04741 -16.56958 220 ft 12 kts 248°
2026-05-05 15:53 28.04710 -16.57048 221 ft 12 kts 248°
2026-05-05 15:53 28.04699 -16.57135 222 ft 11 kts 302°
2026-05-05 15:54 28.04765 -16.57182 223 ft 11 kts 322°
2026-05-05 15:54 28.04770 -16.57262 224 ft 11 kts 245°
2026-05-05 15:54 28.04743 -16.57340 224 ft 11 kts 249°
2026-05-05 15:54 28.04717 -16.57416 224 ft 10 kts 248°
2026-05-05 15:55 28.04694 -16.57480 224 ft 1 kts 264°
2026-05-05 15:55 28.04697 -16.57489 224 ft 2 kts 290°
2026-05-05 15:55 28.04714 -16.57509 224 ft 4 kts 335°
2026-05-05 15:55 28.04742 -16.57510 226 ft 4 kts
2026-05-05 15:56 28.04770 -16.57506 226 ft 3 kts
2026-05-05 15:56 28.04776 -16.57505 225 ft 0 kts